Sedona, AZ

6:57 PM MST on May 25, 2017 (GMT -0700)
Sedona

Weather History for KSEZ - October, 2011

Change the Weather History Date:

Tuesday, October 11, 2011

  Actual Average Record
Temperature  
Mean Temperature 66 °F -  
Max Temperature 80 °F 79 °F 82 °F (2015)
Min Temperature 51 °F 49 °F 41 °F (2013)
Growing Degree Days 16 (Base 50)    
Moisture  
Dew Point 31 °F    
Average Humidity 28    
Maximum Humidity 41    
Minimum Humidity 17    
Precipitation  
Precipitation 0.00 in - - ()
Sea Level Pressure  
Sea Level Pressure 30.04 in    
Wind  
Wind Speed 5 mph (NE)    
Max Wind Speed 14 mph    
Max Gust Speed 16 mph    
Visibility 10 miles    
Events      
Averages and records for this station are not official NWS values.
T = Trace of Precipitation, MM = Missing Value Source: NWS Daily Summary

Daily Weather History Graph

Daily Weather History Graph

Search for Another Location

Airport or City:

Trip Planner

Search our weather history database for the weather conditions in past years. The results will help you decide how hot, cold, wet, or windy it might be!

Date:

Astronomy

Oct. 11, 2011 Rise Set
Actual Time 6:29 AM MST 5:57 PM MST
Civil Twilight 6:04 AM MST 6:23 PM MST
Nautical Twilight 5:34 AM MST 6:52 PM MST
Astronomical Twilight 5:05 AM MST 7:21 PM MST
Moon 5:33 PM MST (10/11) 6:09 AM MST (10/11)
Length of Visible Light 12h 18m
Length of Day
11h 28m
Full, 100% of the Moon is Illuminated
Oct 11
Full
Oct 11
Full
Oct 19
Last Quarter
Oct 26
New
Nov 2
First Quarter

Hourly Weather History & Observations

Time (MST) Temp. Dew Point Humidity Pressure Visibility Wind Dir Wind Speed Gust Speed Precip Events Conditions
12:15 AM 55.4 °F 30.2 °F 38% 30.03 in 10.0 mi NE 10.4 mph - N/A   Clear
12:35 AM 55.4 °F 30.2 °F 38% 30.02 in 10.0 mi NNE 9.2 mph - N/A   Clear
12:55 AM 53.6 °F 30.2 °F 41% 30.02 in 10.0 mi NE 10.4 mph - N/A   Clear
1:15 AM 53.6 °F 30.2 °F 41% 30.03 in 10.0 mi NE 10.4 mph - N/A   Clear
1:35 AM 55.4 °F 28.4 °F 36% 30.03 in 10.0 mi NE 10.4 mph - N/A   Clear
2:15 AM 53.6 °F 28.4 °F 38% 30.03 in 10.0 mi NE 13.8 mph - N/A   Clear
5:55 AM 53.6 °F 30.2 °F 41% 30.04 in 10.0 mi ENE 9.2 mph - N/A   Clear
6:15 AM 53.6 °F 28.4 °F 38% 30.04 in 10.0 mi Calm Calm - N/A   Clear
6:35 AM 51.8 °F 28.4 °F 41% 30.04 in 10.0 mi Calm Calm - N/A   Clear
6:55 AM 53.6 °F 28.4 °F 38% 30.04 in 10.0 mi Calm Calm - N/A   Clear
7:15 AM 53.6 °F 30.2 °F 41% 30.04 in 10.0 mi Calm Calm - N/A   Clear
7:35 AM 55.4 °F 30.2 °F 38% 30.05 in 10.0 mi ENE 8.1 mph - N/A   Clear
7:55 AM 59.0 °F 30.2 °F 34% 30.06 in 10.0 mi Calm Calm - N/A   Clear
8:15 AM 57.2 °F 30.2 °F 36% 30.07 in 10.0 mi Calm Calm - N/A   Clear
8:35 AM 59.0 °F 32.0 °F 36% 30.07 in 10.0 mi Calm Calm - N/A   Clear
8:55 AM 60.8 °F 32.0 °F 34% 30.07 in 10.0 mi Calm Calm - N/A   Clear
9:15 AM 62.6 °F 32.0 °F 32% 30.07 in 10.0 mi Calm Calm - N/A   Clear
9:35 AM 62.6 °F 32.0 °F 32% 30.07 in 10.0 mi Calm Calm - N/A   Clear
9:55 AM 68.0 °F 33.8 °F 28% 30.07 in 10.0 mi Calm Calm - N/A   Clear
10:15 AM 68.0 °F 32.0 °F 26% 30.07 in 10.0 mi Calm Calm - N/A   Clear
10:35 AM 69.8 °F 32.0 °F 25% 30.07 in 10.0 mi Calm Calm - N/A   Clear
10:55 AM 69.8 °F 32.0 °F 25% 30.07 in 10.0 mi Calm Calm - N/A   Clear
11:15 AM 71.6 °F 32.0 °F 23% 30.06 in 10.0 mi Calm Calm - N/A   Clear
11:35 AM 71.6 °F 32.0 °F 23% 30.06 in 10.0 mi Calm Calm - N/A   Clear
12:15 PM 71.6 °F 32.0 °F 23% 30.06 in 10.0 mi Calm Calm - N/A   Clear
12:35 PM 75.2 °F 32.0 °F 21% 30.05 in 10.0 mi Calm Calm - N/A   Clear
12:55 PM 73.4 °F 32.0 °F 22% 30.04 in 10.0 mi Calm Calm - N/A   Clear
1:15 PM 77.0 °F 32.0 °F 19% 30.03 in 10.0 mi Calm Calm - N/A   Clear
1:35 PM 78.8 °F 33.8 °F 20% 30.02 in 10.0 mi Calm Calm - N/A   Clear
1:55 PM 77.0 °F 33.8 °F 21% 30.02 in 10.0 mi Calm Calm - N/A   Clear
2:15 PM 77.0 °F 33.8 °F 21% 30.01 in 10.0 mi Calm Calm - N/A   Clear
2:35 PM 78.8 °F 32.0 °F 18% 30.01 in 10.0 mi Calm Calm - N/A   Clear
2:55 PM 78.8 °F 33.8 °F 20% 30.01 in 10.0 mi Calm Calm - N/A   Clear
3:15 PM 78.8 °F 32.0 °F 18% 30.01 in 10.0 mi Calm Calm - N/A   Clear
3:55 PM 80.6 °F 32.0 °F 17% 30.00 in 10.0 mi Calm Calm - N/A   Clear
4:15 PM 78.8 °F 32.0 °F 18% 30.00 in 10.0 mi NNW 8.1 mph - N/A   Clear
4:35 PM 78.8 °F 32.0 °F 18% 30.00 in 10.0 mi North 9.2 mph - N/A   Clear
4:55 PM 77.0 °F 30.2 °F 18% 30.01 in 10.0 mi North 10.4 mph 16.1 mph N/A   Clear
5:15 PM 77.0 °F 30.2 °F 18% 30.01 in 10.0 mi Calm Calm - N/A   Clear
5:35 PM 75.2 °F 30.2 °F 19% 30.01 in 10.0 mi Calm Calm - N/A   Clear
5:55 PM 73.4 °F 32.0 °F 22% 30.01 in 10.0 mi North 3.5 mph - N/A   Clear
6:15 PM 71.6 °F 32.0 °F 23% 30.02 in 10.0 mi North 11.5 mph - N/A   Clear
6:35 PM 71.6 °F 32.0 °F 23% 30.02 in 10.0 mi North 5.8 mph - N/A   Clear
6:55 PM 69.8 °F 32.0 °F 25% 30.03 in 10.0 mi ENE 5.8 mph - N/A   Clear
7:15 PM 69.8 °F 32.0 °F 25% 30.03 in 10.0 mi ENE 6.9 mph - N/A   Clear
7:35 PM 69.8 °F 32.0 °F 25% 30.04 in 10.0 mi Calm Calm - N/A   Clear
7:55 PM 68.0 °F 32.0 °F 26% 30.05 in 10.0 mi ENE 6.9 mph 16.1 mph N/A   Clear
8:15 PM 68.0 °F 32.0 °F 26% 30.06 in 10.0 mi Calm Calm - N/A   Clear
8:35 PM 68.0 °F 32.0 °F 26% 30.06 in 10.0 mi ENE 4.6 mph - N/A   Clear
8:55 PM 64.4 °F 32.0 °F 30% 30.06 in 10.0 mi NNE 5.8 mph - N/A   Clear
9:15 PM 64.4 °F 32.0 °F 30% 30.07 in 10.0 mi NE 5.8 mph - N/A   Clear
9:35 PM 64.4 °F 32.0 °F 30% 30.07 in 10.0 mi NE 8.1 mph - N/A   Clear
9:55 PM 64.4 °F 32.0 °F 30% 30.07 in 10.0 mi NE 8.1 mph - N/A   Clear
10:15 PM 64.4 °F 32.0 °F 30% 30.08 in 10.0 mi NNE 10.4 mph - N/A   Clear
10:35 PM 62.6 °F 32.0 °F 32% 30.08 in 10.0 mi NE 10.4 mph - N/A   Clear
10:55 PM 62.6 °F 32.0 °F 32% 30.09 in 10.0 mi NE 11.5 mph - N/A   Clear
11:15 PM 62.6 °F 32.0 °F 32% 30.09 in 10.0 mi NE 10.4 mph - N/A   Clear
11:35 PM 62.6 °F 32.0 °F 32% 30.08 in 10.0 mi NE 13.8 mph - N/A   Clear
11:55 PM 62.6 °F 32.0 °F 32% 30.09 in 10.0 mi ENE 11.5 mph - N/A   Clear